sat.trackr.live / text

‹ back to catalog

ONEWEB-0434

NORAD 51631 · 2022-012K

PAYLOAD ACTIVE UNKNOWN

§ Identity

Operator
Country
UK
Launch date
2022-02-10
Launch site
FRGUI
Launch vehicle
Mass (kg)
RCS (m²)

Purposes: comms

External: N2YO · Heavens-Above · Gunter

§ Orbital elements

Epoch: 2026-05-25T03:03:32.702976Z

Period
109.89 min
Inclination
87.8858°
Eccentricity
0.0002449
Mean motion
13.10374735 rev/d
Perigee alt
1,219.8 km
Apogee alt
1,223.6 km
Semi-major
7,599.8 km
B*
-1.6286e-3
RAAN
40.8814°
Arg perigee
84.6138°
Mean anomaly
275.5269°
Rev number
20,630

§ Raw data

ONEWEB-04341 51631U 22012K   26145.12746184 -.00000556  00000+0 -16286-2 0  99962 51631  87.8858  40.8814 0002449  84.6138 275.5269 13.10374735206307

JSON: /api/v1/satellites/51631 · /tle

For live sub-satellite position, see the globe view (requires WebGL).

§ Visibility from observer

Set your observer location to see the next 7 days of passes ≥ 10°. The values pass through the URL so the page stays shareable.

No JS? Fill the form by hand. The geolocation button needs JavaScript.